Starlink 11180

operational
NORAD ID: 60185 Int'l Des: 2024-124 Owner: SPXS Country: US Constellation: starlink
LEOCIRCULAR

Über Starlink 11180

Beschreibung wird geladen...

Live-Position

3D-Globus wird geladen...

Nächste Überflüge

Höhenverlauf

Altitude vs Time

uPlot chart will show altitude changes over time

Zweizeiliger Elementsatz

1 60185U 24124C 25257.43329839 .00000574 00000-0 96008-5 0 9999
2 60185 53.1583 309.9454 0001166 76.9057 283.2091 15.69705017 68852
Epoch: 14. Sept. 2025 • Age: 31 hours

Aktueller Status

Höhe 362.3 km
Geschwindigkeit 7.70 km/s
Subsatellitenpunkt 37.34°N, 168.75°W
Startdatum 3. Juli 2024
Alter 1.2 years
Typ internet

Technische Details

Klassifizierung Payload
Masse 960.00 kg
Trockenmasse 910.00 kg
Gesamtmasse 960.00 kg
Länge 0.30 m
Durchmesser 4.10 m
Spannweite 29.00 m
Form Box + pan
Hersteller SPXS
Bus-Typ Starlink V2MD
Phasenstatus In Orbit
Besitzer/Staat SPXS/US

Große Konstellationen

Loading constellations...